Air Quality Table

TIMESTAMP NO2 SO2 O3 PM10 PM2.5 TEMP HUM AIRPRES WS WD NO
2022-08-08 17:00 4.84 µg/m3 0.07 µg/m3 101.72 µg/m3 21.22 µg/m3 10.52 µg/m3 30.3 °C 74.1 % 1,005.15 mbar 2.74 m/s 186.77 Deg 1.11 µg/m3
2022-08-08 09:00 14.97 µg/m3 0 µg/m3 42.77 µg/m3 29.93 µg/m3 12.24 µg/m3 27.17 °C 90.14 % 1,004.06 mbar 0.94 m/s 199.94 Deg 2.08 µg/m3
2022-08-08 01:00 15.68 µg/m3 0 µg/m3 63.96 µg/m3 36.28 µg/m3 14.79 µg/m3 28.13 °C 82.72 % 1,003.65 mbar 1.97 m/s 268.06 Deg 1.37 µg/m3
2022-08-07 17:00 4.35 µg/m3 0 µg/m3 101.68 µg/m3 12.2 µg/m3 5.71 µg/m3 30.82 °C 61.97 % 1,003.62 mbar 2.85 m/s 160.38 Deg 0.97 µg/m3
2022-08-07 09:00 12.96 µg/m3 0 µg/m3 61.88 µg/m3 31.31 µg/m3 10.9 µg/m3 27.39 °C 85.72 % 1,003.57 mbar 1.65 m/s 215.28 Deg 1.45 µg/m3
2022-08-07 01:00 8.42 µg/m3 0 µg/m3 61.27 µg/m3 34.94 µg/m3 12.21 µg/m3 28.65 °C 76.77 % 1,004.79 mbar 2.39 m/s 307.19 Deg 1.44 µg/m3
2022-08-06 17:00 10.45 µg/m3 0 µg/m3 89.54 µg/m3 17.98 µg/m3 6.49 µg/m3 32.86 °C 45.33 % 1,005.22 mbar 3.12 m/s 309.68 Deg 2.38 µg/m3
2022-08-06 09:00 13.71 µg/m3 0 µg/m3 63.64 µg/m3 27.27 µg/m3 13 µg/m3 27.51 °C 83.04 % 1,005.82 mbar 2.02 m/s 314.79 Deg 2.02 µg/m3
2022-08-06 01:00 15.02 µg/m3 0 µg/m3 73.91 µg/m3 36.53 µg/m3 10.45 µg/m3 29.17 °C 65.17 % 1,006.32 mbar 1.82 m/s 314.91 Deg 1.21 µg/m3
2022-08-05 17:00 9.12 µg/m3 0 µg/m3 89.95 µg/m3 17.14 µg/m3 5.8 µg/m3 31.33 °C 51.71 % 1,007.09 mbar 3.21 m/s 131.56 Deg 2.28 µg/m3
2022-08-05 09:00 25.12 µg/m3 0 µg/m3 62.23 µg/m3 32.54 µg/m3 15.25 µg/m3 27.58 °C 81.87 % 1,007.30 mbar 1.58 m/s 287.21 Deg 3.94 µg/m3
2022-08-05 01:00 7.92 µg/m3 0 µg/m3 94.46 µg/m3 31.09 µg/m3 13.63 µg/m3 28.49 °C 74.25 % 1,007.63 mbar 1.59 m/s 117.18 Deg 0.77 µg/m3
2022-08-04 17:00 6.93 µg/m3 0 µg/m3 110.39 µg/m3 23.68 µg/m3 10.9 µg/m3 30.03 °C 66.52 % 1,007.57 mbar 2.68 m/s 178.49 Deg 1.49 µg/m3
2022-08-04 09:00 26.39 µg/m3 0 µg/m3 54.02 µg/m3 29.94 µg/m3 12.37 µg/m3 27.19 °C 75.88 % 1,006.91 mbar 1.36 m/s 135.27 Deg 5.16 µg/m3
2022-08-04 01:00 7.68 µg/m3 0 µg/m3 81.31 µg/m3 25.82 µg/m3 10.66 µg/m3 27.7 °C 73.97 % 1,006.68 mbar 1.3 m/s 92.51 Deg 0.92 µg/m3
2022-08-03 17:00 4.05 µg/m3 0 µg/m3 91.66 µg/m3 22.49 µg/m3 7.27 µg/m3 30.1 °C 61.11 % 1,006.50 mbar 2.97 m/s 180.96 Deg 0.88 µg/m3
2022-08-03 09:00 23.39 µg/m3 0.88 µg/m3 33.48 µg/m3 19.56 µg/m3 7.17 µg/m3 27.3 °C 81.92 % 1,005.87 mbar 2.04 m/s 237.4 Deg 2.28 µg/m3
2022-08-03 01:00 6.93 µg/m3 0.08 µg/m3 52.28 µg/m3 2.99 µg/m3 2.91 µg/m3 27.92 °C 82.77 % 1,005.59 mbar 2.13 m/s 72 Deg 1.46 µg/m3
2022-08-02 17:00 6.19 µg/m3 0.05 µg/m3 54.03 µg/m3 15.89 µg/m3 10.79 µg/m3 29.47 °C 72.45 % 1,005.38 mbar 3.3 m/s 177.28 Deg 1.62 µg/m3
2022-08-02 09:00 14.87 µg/m3 0.12 µg/m3 61.26 µg/m3 44.8 µg/m3 19.48 µg/m3 27.22 °C 84.58 % 1,005.43 mbar 0.71 m/s 213.6 Deg 2.4 µg/m3
2022-08-02 01:00 5.52 µg/m3 0.03 µg/m3 71.37 µg/m3 15.9 µg/m3 9.05 µg/m3 28.29 °C 78.64 % 1,005.45 mbar 1.84 m/s 283.94 Deg 0.86 µg/m3
2022-08-01 17:00 3.22 µg/m3 0.04 µg/m3 85.68 µg/m3 16.06 µg/m3 5.21 µg/m3 29.67 °C 71.15 % 1,005.28 mbar 3.39 m/s 176.39 Deg 0.98 µg/m3
2022-08-01 09:00 4.89 µg/m3 0.05 µg/m3 76.72 µg/m3 32.47 µg/m3 12.84 µg/m3 27.29 °C 89.67 % 1,005.06 mbar 1.66 m/s 212.59 Deg 0.97 µg/m3
2022-08-01 01:00 6.06 µg/m3 0.03 µg/m3 81.16 µg/m3 23.01 µg/m3 14.14 µg/m3 28.37 °C 81.89 % 1,004.94 mbar 1.54 m/s 177.82 Deg 0.96 µg/m3
2022-07-31 17:00 3 µg/m3 0.03 µg/m3 89.71 µg/m3 31.7 µg/m3 7.37 µg/m3 30.32 °C 69.72 % 1,005.73 mbar 2.89 m/s 192.99 Deg 0.83 µg/m3
2022-07-31 09:00 9.9 µg/m3 0.07 µg/m3 59.18 µg/m3 37.11 µg/m3 12.65 µg/m3 28.22 °C 81.15 % 1,005.25 mbar 3.08 m/s 252.91 Deg 1.68 µg/m3
2022-07-31 01:00 8.85 µg/m3 0.08 µg/m3 52.91 µg/m3 38.74 µg/m3 17.78 µg/m3 29.25 °C 76.1 % 1,006.31 mbar 2.45 m/s 300 Deg 1.62 µg/m3
2022-07-30 17:00 10.23 µg/m3 0.11 µg/m3 61.42 µg/m3 35.49 µg/m3 6.4 µg/m3 32.76 °C 57.32 % 1,006.43 mbar 2.47 m/s 214.49 Deg 2.44 µg/m3
2022-07-30 09:00 15.99 µg/m3 0.11 µg/m3 43.82 µg/m3 44.16 µg/m3 15.53 µg/m3 28.18 °C 75.24 % 1,006.47 mbar 1.42 m/s 321.66 Deg 3.14 µg/m3
2022-07-30 01:00 16.57 µg/m3 0.1 µg/m3 57.43 µg/m3 35.02 µg/m3 6.9 µg/m3 29.69 °C 67.62 % 1,007.07 mbar 1.24 m/s 212.17 Deg 1.38 µg/m3
2022-07-29 17:00 5.96 µg/m3 0.03 µg/m3 93.25 µg/m3 14.79 µg/m3 4.43 µg/m3 30.94 °C 65.88 % 1,007.14 mbar 3.01 m/s 161.87 Deg 1.17 µg/m3
2022-07-29 09:00 8.54 µg/m3 0.05 µg/m3 61.5 µg/m3 36.08 µg/m3 16.95 µg/m3 27.58 °C 92.56 % 1,006.16 mbar 1.86 m/s 103.15 Deg 1.47 µg/m3
2022-07-29 01:00 6.55 µg/m3 0.04 µg/m3 67.21 µg/m3 30.2 µg/m3 24.43 µg/m3 28.24 °C 91.85 % 1,005.42 mbar 2.1 m/s 43.56 Deg 1.07 µg/m3
2022-07-28 17:00 3.57 µg/m3 0.05 µg/m3 88.47 µg/m3 54.85 µg/m3 9.61 µg/m3 29.7 °C 80.15 % 1,003.94 mbar 2.75 m/s 220.66 Deg 1.17 µg/m3
2022-07-28 09:00 15.3 µg/m3 0.1 µg/m3 59.62 µg/m3 54.19 µg/m3 16.47 µg/m3 27.01 °C 93.62 % 1,002.46 mbar 1.54 m/s 275.24 Deg 2.36 µg/m3
2022-07-28 01:00 8.11 µg/m3 0.05 µg/m3 80.05 µg/m3 24.53 µg/m3 14.6 µg/m3 28.55 °C 82.63 % 1,002.17 mbar 1.78 m/s 246.06 Deg 0.98 µg/m3
2022-07-27 17:00 8.02 µg/m3 0.07 µg/m3 81.44 µg/m3 34.45 µg/m3 7.88 µg/m3 30.86 °C 66.47 % 1,002.08 mbar 2.94 m/s 120.85 Deg 1.89 µg/m3
2022-07-27 09:00 17.44 µg/m3 0.11 µg/m3 48.24 µg/m3 63.97 µg/m3 21.15 µg/m3 27.31 °C 92.92 % 1,001.67 mbar 1.68 m/s 226.92 Deg 5.31 µg/m3
2022-07-27 01:00 9.3 µg/m3 0.11 µg/m3 72.12 µg/m3 15.31 µg/m3 4.9 µg/m3 29.06 °C 72.66 % 1,002.74 mbar 2.27 m/s 291.56 Deg 1.16 µg/m3
2022-07-26 17:00 9.45 µg/m3 0.12 µg/m3 89.44 µg/m3 46.35 µg/m3 5.22 µg/m3 32.61 °C 59.04 % 1,003.48 mbar 2.75 m/s 234.8 Deg 1.97 µg/m3
2022-07-26 09:00 13.85 µg/m3 0.08 µg/m3 60.51 µg/m3 48.3 µg/m3 27.16 µg/m3 28.04 °C 86.46 % 1,004.07 mbar 2.13 m/s 294.06 Deg 2.98 µg/m3
2022-07-26 01:00 21.1 µg/m3 0.09 µg/m3 66.72 µg/m3 26.26 µg/m3 7.16 µg/m3 30.26 °C 54.22 % 1,005.02 mbar 1.64 m/s 227.54 Deg 1.6 µg/m3
2022-07-25 17:00 10.74 µg/m3 0.06 µg/m3 97.58 µg/m3 30.96 µg/m3 6.73 µg/m3 33.5 °C 52.71 % 1,005.82 mbar 2.49 m/s 206.91 Deg 1.92 µg/m3
2022-07-25 09:00 24.99 µg/m3 0.1 µg/m3 55.83 µg/m3 30.81 µg/m3 15.98 µg/m3 28.09 °C 75.88 % 1,006.71 mbar 1.7 m/s 290.17 Deg 4.75 µg/m3
2022-07-25 01:00 9.95 µg/m3 0.06 µg/m3 72.05 µg/m3 41.42 µg/m3 14.12 µg/m3 28.27 °C 75.05 % 1,007.90 mbar 2.07 m/s 309.69 Deg 1.21 µg/m3
2022-07-24 17:00 5.85 µg/m3 0.06 µg/m3 85.92 µg/m3 11.92 µg/m3 5.6 µg/m3 32.33 °C 47.09 % 1,008.85 mbar 3.21 m/s 317.74 Deg 1.58 µg/m3
2022-07-24 09:00 10.76 µg/m3 0.09 µg/m3 57.07 µg/m3 28.61 µg/m3 16.72 µg/m3 26.98 °C 83.18 % 1,009.52 mbar 1.9 m/s 324.42 Deg 1.71 µg/m3
2022-07-24 01:00 14.7 µg/m3 0.08 µg/m3 65.43 µg/m3 39.46 µg/m3 11.81 µg/m3 28.88 °C 61.26 % 1,010.06 mbar 1.87 m/s 316.91 Deg 1.41 µg/m3
2022-07-23 17:00 9.41 µg/m3 0.06 µg/m3 93.52 µg/m3 26.68 µg/m3 7.54 µg/m3 31.15 °C 58 % 1,010.08 mbar 3.27 m/s 162.71 Deg 1.82 µg/m3
2022-07-23 09:00 22.27 µg/m3 0.12 µg/m3 72.08 µg/m3 26.64 µg/m3 12.53 µg/m3 27.15 °C 79.76 % 1,009.96 mbar 1.19 m/s 289.24 Deg 3.32 µg/m3
2022-07-23 01:00 10.45 µg/m3 0.1 µg/m3 67.53 µg/m3 36.87 µg/m3 14.43 µg/m3 28.3 °C 79.8 % 1,009.61 mbar 1.48 m/s 176.89 Deg 1.16 µg/m3
2022-07-22 17:00 5.09 µg/m3 0.05 µg/m3 99.94 µg/m3 20.46 µg/m3 12.7 µg/m3 30.46 °C 65.14 % 1,009.38 mbar 2.69 m/s 218.1 Deg 1.18 µg/m3
2022-07-22 09:00 27.58 µg/m3 0.16 µg/m3 46.9 µg/m3 38.02 µg/m3 18.57 µg/m3 26.58 °C 84.2 % 1,008.89 mbar 1.02 m/s 282.62 Deg 4.68 µg/m3
2022-07-22 01:00 9.59 µg/m3 0.07 µg/m3 76.86 µg/m3 31.27 µg/m3 11.15 µg/m3 27.78 °C 75.96 % 1,009.14 mbar 1.53 m/s 146.89 Deg 1 µg/m3
2022-07-21 17:00 8.43 µg/m3 0.05 µg/m3 104.74 µg/m3 25.96 µg/m3 9.2 µg/m3 30.01 °C 64.77 % 1,009.55 mbar 2.95 m/s 143.53 Deg 2.59 µg/m3
2022-07-21 09:00 28.27 µg/m3 0.13 µg/m3 67.4 µg/m3 36.76 µg/m3 19.99 µg/m3 26.69 °C 82.38 % 1,009.71 mbar 1.09 m/s 225.88 Deg 4.61 µg/m3
2022-07-21 01:00 4.39 µg/m3 0.05 µg/m3 102.94 µg/m3 32.2 µg/m3 16.05 µg/m3 27.19 °C 78.41 % 1,010.01 mbar 1.25 m/s 142.66 Deg 0.71 µg/m3
2022-07-20 17:00 4.25 µg/m3 0.03 µg/m3 107.92 µg/m3 19.87 µg/m3 7.3 µg/m3 28.84 °C 66.98 % 1,010.45 mbar 3.37 m/s 164.92 Deg 0.99 µg/m3
2022-07-20 09:00 9.89 µg/m3 0.06 µg/m3 83.89 µg/m3 28.4 µg/m3 14.59 µg/m3 26.94 °C 79.57 % 1,009.59 mbar 1.56 m/s 133.92 Deg 1.26 µg/m3
2022-07-20 01:00 4.73 µg/m3 0.04 µg/m3 95.6 µg/m3 32.55 µg/m3 15.38 µg/m3 27.13 °C 80.82 % 1,009.46 mbar 1.42 m/s 148.04 Deg 0.66 µg/m3
2022-07-19 17:00 5.83 µg/m3 0.07 µg/m3 118 µg/m3 29.53 µg/m3 15.63 µg/m3 29.55 °C 71.08 % 1,009.78 mbar 2.71 m/s 192.67 Deg 1.18 µg/m3
2022-07-19 09:00 18.33 µg/m3 0.09 µg/m3 81.5 µg/m3 26.92 µg/m3 11.26 µg/m3 27.77 °C 74.43 % 1,009.49 mbar 2.33 m/s 212.73 Deg 2.35 µg/m3
2022-07-19 01:00 9.31 µg/m3 0.06 µg/m3 106.96 µg/m3 29.88 µg/m3 14.67 µg/m3 28.36 °C 73.91 % 1,009.86 mbar 2.18 m/s 145.57 Deg 0.9 µg/m3
2022-07-18 17:00 10.65 µg/m3 0.08 µg/m3 98.92 µg/m3 23.65 µg/m3 8.92 µg/m3 30.4 °C 60.95 % 1,010.33 mbar 2.64 m/s 184.87 Deg 2.41 µg/m3
2022-07-18 09:00 31.89 µg/m3 0.16 µg/m3 49.74 µg/m3 21.7 µg/m3 7.86 µg/m3 26.86 °C 67.33 % 1,010.16 mbar 1.39 m/s 270.09 Deg 5.41 µg/m3
2022-07-18 01:00 8.89 µg/m3 0.07 µg/m3 83.66 µg/m3 28.87 µg/m3 14.65 µg/m3 27.19 °C 78.78 % 1,010.30 mbar 2.12 m/s 162.17 Deg 1.01 µg/m3
2022-07-17 17:00 5.12 µg/m3 0.08 µg/m3 104.97 µg/m3 19.23 µg/m3 7.45 µg/m3 29.74 °C 61.75 % 1,010.06 mbar 2.33 m/s 197.42 Deg 1.06 µg/m3
2022-07-17 09:00 29.8 µg/m3 0.16 µg/m3 43.56 µg/m3 17.68 µg/m3 9.61 µg/m3 26.1 °C 72.77 % 1,009.38 mbar 1.04 m/s 297.03 Deg 4.98 µg/m3
2022-07-17 01:00 11.91 µg/m3 0.08 µg/m3 64.01 µg/m3 30.97 µg/m3 8.06 µg/m3 26.71 °C 78.88 % 1,009.19 mbar 1.94 m/s 219.5 Deg 1.26 µg/m3
2022-07-16 17:00 8.41 µg/m3 0.1 µg/m3 108.23 µg/m3 10.2 µg/m3 4.53 µg/m3 29.33 °C 53.5 % 1,008.74 mbar 2.88 m/s 169.3 Deg 1.38 µg/m3
2022-07-16 09:00 17.08 µg/m3 0.15 µg/m3 69.74 µg/m3 26.08 µg/m3 12.06 µg/m3 25.24 °C 86.32 % 1,008.17 mbar 1.21 m/s 311.58 Deg 2.19 µg/m3
2022-07-16 01:00 9.27 µg/m3 0.11 µg/m3 84.53 µg/m3 30.01 µg/m3 11.6 µg/m3 26.9 °C 79.49 % 1,007.65 mbar 2 m/s 113.59 Deg 0.99 µg/m3
2022-07-15 17:00 7.41 µg/m3 0.09 µg/m3 95 µg/m3 25.9 µg/m3 8.58 µg/m3 28.41 °C 68.94 % 1,007.53 mbar 2.73 m/s 193.58 Deg 2.12 µg/m3
2022-07-15 09:00 23.27 µg/m3 0.13 µg/m3 60.29 µg/m3 42.37 µg/m3 11.59 µg/m3 25.05 °C 84.41 % 1,007.72 mbar 1.35 m/s 258.83 Deg 3.98 µg/m3
2022-07-15 01:00 10.72 µg/m3 0.09 µg/m3 76.49 µg/m3 20.8 µg/m3 6.01 µg/m3 26.47 °C 66.17 % 1,009.26 mbar 1.71 m/s 297.78 Deg 1.01 µg/m3
2022-07-14 17:00 2.6 µg/m3 0.06 µg/m3 95.98 µg/m3 7.64 µg/m3 5.01 µg/m3 27.1 °C 68.26 % 1,011.38 mbar 3.66 m/s 172.03 Deg 0.83 µg/m3
2022-07-14 09:00 4.88 µg/m3 0.07 µg/m3 80.68 µg/m3 18.8 µg/m3 8.5 µg/m3 25.07 °C 88.68 % 1,012.11 mbar 0.98 m/s 185.7 Deg 0.92 µg/m3
2022-07-14 01:00 2.91 µg/m3 0.09 µg/m3 98.69 µg/m3 29.69 µg/m3 2.88 µg/m3 26.02 °C 80.45 % 1,012.28 mbar 1.79 m/s 133.12 Deg 0.69 µg/m3
2022-07-13 17:00 6.31 µg/m3 0.13 µg/m3 97.48 µg/m3 17.27 µg/m3 2.88 µg/m3 28.52 °C 57.32 % 1,012.19 mbar 3.16 m/s 159.83 Deg 1.54 µg/m3
2022-07-13 09:00 29.35 µg/m3 0.24 µg/m3 31.83 µg/m3 20.28 µg/m3 2.88 µg/m3 25.26 °C 82.35 % 1,011.96 mbar 1.43 m/s 291.85 Deg 9.75 µg/m3
2022-07-13 01:00 14.29 µg/m3 0.11 µg/m3 54.53 µg/m3 2.97 µg/m3 2.88 µg/m3 26.62 °C 75.94 % 1,012.43 mbar 2.14 m/s 325.32 Deg 1.31 µg/m3
2022-07-12 17:00 5.78 µg/m3 0.11 µg/m3 80.5 µg/m3 2.75 µg/m3 2.88 µg/m3 28.42 °C 64.37 % 1,013.09 mbar 3.01 m/s 190.27 Deg 1.24 µg/m3
2022-07-12 09:00 19.45 µg/m3 0.13 µg/m3 44.63 µg/m3 12.67 µg/m3 5.79 µg/m3 25.48 °C 78.2 % 1,011.96 mbar 1.08 m/s 149.81 Deg 4.61 µg/m3
2022-07-12 01:00 3.53 µg/m3 0.05 µg/m3 67.4 µg/m3 27.13 µg/m3 7.59 µg/m3 25.7 °C 77.21 % 1,010.45 mbar 1.89 m/s 133.13 Deg 0.75 µg/m3
2022-07-11 17:00 4.59 µg/m3 0.05 µg/m3 83.12 µg/m3 12.99 µg/m3 6.9 µg/m3 27.35 °C 65.61 % 1,008.75 mbar 3.31 m/s 187.7 Deg 1.11 µg/m3
2022-07-11 09:00 11.51 µg/m3 0.06 µg/m3 69.41 µg/m3 25.12 µg/m3 7.67 µg/m3 24.4 °C 84.48 % 1,007.41 mbar 1.39 m/s 236.03 Deg 1.32 µg/m3
2022-07-11 01:00 11.24 µg/m3 0.06 µg/m3 83.32 µg/m3 25.16 µg/m3 8.41 µg/m3 25.49 °C 73.06 % 1,007.30 mbar 1.49 m/s 184.24 Deg 0.74 µg/m3
2022-07-10 17:00 2.08 µg/m3 0.04 µg/m3 96.24 µg/m3 15 µg/m3 7.52 µg/m3 26.75 °C 71.03 % 1,006.91 mbar 3.22 m/s 170.78 Deg 0.64 µg/m3
2022-07-10 09:00 4.5 µg/m3 0.07 µg/m3 82.46 µg/m3 19.81 µg/m3 8.38 µg/m3 25.37 °C 77.97 % 1,006.69 mbar 2.12 m/s 196.42 Deg 0.74 µg/m3
2022-07-10 01:00 11.63 µg/m3 0.05 µg/m3 83.29 µg/m3 24.08 µg/m3 6.04 µg/m3 25.91 °C 70.06 % 1,007.67 mbar 2.89 m/s 177.23 Deg 0.73 µg/m3
2022-07-09 17:00 5.45 µg/m3 0.05 µg/m3 84.89 µg/m3 13.12 µg/m3 5.01 µg/m3 27.84 °C 53.29 % 1,008.07 mbar 3.34 m/s 84.35 Deg 1.34 µg/m3
2022-07-09 09:00 12.33 µg/m3 0.06 µg/m3 78.75 µg/m3 17.76 µg/m3 6.35 µg/m3 26.1 °C 71.48 % 1,007.50 mbar 2.84 m/s 241.82 Deg 1.42 µg/m3

It is to be noted that the data is provisional and subject to quality assurance procedures. For validated data kindly refer your request to contact.air@era.org.mt